| time (UTC) | temp C | wind direction | speed KPH | gust KPH | rain 1hr cm | rain 24hr cm | rain mn cm | humidity % | barometer mb |
| 20260504050709 | 7 | 193 | 0.0 | 1.6 | 0.00 | 0.00 | 0.00 | 54 | 1014.1 |
| 20260504050206 | 7 | 204 | 0.0 | 0.0 | 0.00 | 0.00 | 0.00 | 56 | 1014.0 |
| 20260504045703 | 7 | 202 | 0.0 | 1.6 | 0.00 | 0.00 | 0.00 | 56 | 1014.0 |
| 20260504045157 | 7 | 102 | 0.0 | 0.0 | 0.00 | 0.00 | 0.00 | 63 | 1013.9 |
| 20260504044655 | 7 | 101 | 0.0 | 0.0 | 0.00 | 0.00 | 0.00 | 60 | 1014.0 |
| 20260504044152 | 7 | 101 | 0.0 | 0.0 | 0.00 | 0.00 | 0.00 | 57 | 1013.8 |
| 20260504043649 | 8 | 101 | 0.0 | 0.0 | 0.00 | 0.00 | 0.00 | 57 | 1014.2 |
| 20260504043146 | 8 | 89 | 0.0 | 1.6 | 0.00 | 0.00 | 0.00 | 55 | 1013.7 |
| 20260504042644 | 8 | 213 | 0.0 | 0.0 | 0.00 | 0.00 | 0.00 | 56 | 1014.1 |
| 20260504042140 | 8 | 213 | 0.0 | 0.0 | 0.00 | 0.00 | 0.00 | 55 | 1013.8 |
| 20260504041636 | 8 | 307 | 0.0 | 0.0 | 0.00 | 0.00 | 0.00 | 53 | 1013.6 |
| 20260504041132 | 8 | 243 | 0.0 | 0.0 | 0.00 | 0.00 | 0.00 | 54 | 1014.0 |
| 20260504040630 | 8 | 276 | 3.2 | 3.2 | 0.00 | 0.00 | 0.00 | 54 | 1013.8 |
| 20260504040126 | 8 | 221 | 0.0 | 0.0 | 0.00 | 0.00 | 0.00 | 53 | 1013.9 |
| 20260504035623 | 7 | 214 | 0.0 | 0.0 | 0.00 | 0.00 | 0.00 | 54 | 1013.9 |
| 20260504035120 | 8 | 220 | 0.0 | 1.6 | 0.00 | 0.00 | 0.00 | 54 | 1013.8 |
| 20260504034618 | 8 | 231 | 0.0 | 4.8 | 0.00 | 0.00 | 0.00 | 52 | 1013.9 |
| 20260504034114 | 8 | 231 | 3.2 | 3.2 | 0.00 | 0.00 | 0.00 | 53 | 1014.1 |
| 20260504033612 | 8 | 210 | 1.6 | 3.2 | 0.00 | 0.00 | 0.00 | 54 | 1014.0 |
| 20260504033109 | 8 | 240 | 0.0 | 0.0 | 0.00 | 0.00 | 0.00 | 54 | 1013.9 |
| 20260504032606 | 8 | 239 | 0.0 | 0.0 | 0.00 | 0.00 | 0.00 | 53 | 1013.8 |
| 20260504032103 | 8 | 239 | 0.0 | 0.0 | 0.00 | 0.00 | 0.00 | 54 | 1013.9 |
| 20260504031600 | 8 | 246 | 0.0 | 0.0 | 0.00 | 0.00 | 0.00 | 54 | 1014.0 |
| 20260504031056 | 8 | 221 | 0.0 | 0.0 | 0.00 | 0.00 | 0.00 | 54 | 1014.0 |
| 20260504030553 | 8 | 218 | 0.0 | 0.0 | 0.00 | 0.00 | 0.00 | 53 | 1014.0 |
| 20260504030049 | 8 | 217 | 0.0 | 0.0 | 0.00 | 0.00 | 0.00 | 53 | 1014.0 |
| 20260504025547 | 8 | 217 | 0.0 | 0.0 | 0.00 | 0.00 | 0.00 | 51 | 1013.8 |
| 20260504025043 | 8 | 217 | 0.0 | 0.0 | 0.00 | 0.00 | 0.00 | 51 | 1013.9 |
| 20260504024541 | 8 | 217 | 0.0 | 0.0 | 0.00 | 0.00 | 0.00 | 52 | 1014.1 |
| 20260504024037 | 8 | 217 | 0.0 | 0.0 | 0.00 | 0.00 | 0.00 | 52 | 1013.9 |
| 20260504023534 | 8 | 217 | 0.0 | 0.0 | 0.00 | 0.00 | 0.00 | 51 | 1014.1 |
| 20260504023030 | 8 | 222 | 0.0 | 1.6 | 0.00 | 0.00 | 0.00 | 50 | 1014.4 |
| 20260504022526 | 8 | 218 | 0.0 | 0.0 | 0.00 | 0.00 | 0.00 | 52 | 1014.2 |
| 20260504022023 | 7 | 214 | 0.0 | 0.0 | 0.00 | 0.00 | 0.00 | 56 | 1014.1 |
| 20260504021520 | 8 | 214 | 0.0 | 0.0 | 0.00 | 0.00 | 0.00 | 58 | 1014.2 |
| 20260504021017 | 8 | 214 | 0.0 | 0.0 | 0.00 | 0.00 | 0.00 | 54 | 1014.3 |
| 20260504020514 | 8 | 214 | 0.0 | 0.0 | 0.00 | 0.00 | 0.00 | 51 | 1014.2 |
| 20260504020010 | 8 | 209 | 0.0 | 0.0 | 0.00 | 0.00 | 0.00 | 51 | 1014.2 |
| 20260504015507 | 8 | 208 | 0.0 | 0.0 | 0.00 | 0.00 | 0.00 | 50 | 1014.2 |
| 20260504015003 | 8 | 230 | 0.0 | 0.0 | 0.00 | 0.00 | 0.00 | 51 | 1014.0 |
| 20260504014459 | 8 | 141 | 0.0 | 0.0 | 0.00 | 0.00 | 0.00 | 52 | 1013.8 |
| 20260504013956 | 8 | 136 | 0.0 | 0.0 | 0.00 | 0.00 | 0.00 | 51 | 1013.6 |
| 20260504013454 | 8 | 240 | 0.0 | 0.0 | 0.00 | 0.00 | 0.00 | 48 | 1013.6 |
| 20260504012950 | 8 | 240 | 0.0 | 0.0 | 0.00 | 0.00 | 0.00 | 49 | 1013.8 |
| 20260504012448 | 8 | 240 | 0.0 | 0.0 | 0.00 | 0.00 | 0.00 | 49 | 1013.3 |
| 20260504011946 | 8 | 240 | 0.0 | 0.0 | 0.00 | 0.00 | 0.00 | 46 | 1013.1 |
| 20260504011442 | 8 | 240 | 0.0 | 0.0 | 0.00 | 0.00 | 0.00 | 48 | 1013.2 |
| 20260504010938 | 8 | 229 | 0.0 | 0.0 | 0.00 | 0.00 | 0.00 | 48 | 1013.3 |
| 20260504010434 | 8 | 219 | 0.0 | 0.0 | 0.00 | 0.00 | 0.00 | 45 | 1013.1 |
| 20260504005930 | 9 | 218 | 0.0 | 0.0 | 0.00 | 0.00 | 0.00 | 45 | 1013.2 |
| 20260504005427 | 9 | 217 | 0.0 | 0.0 | 0.00 | 0.00 | 0.00 | 45 | 1013.1 |
| 20260504004925 | 9 | 226 | 0.0 | 0.0 | 0.00 | 0.00 | 0.00 | 44 | 1013.0 |
| 20260504004422 | 9 | 225 | 0.0 | 0.0 | 0.00 | 0.00 | 0.00 | 44 | 1013.0 |
| 20260504003919 | 9 | 224 | 0.0 | 0.0 | 0.00 | 0.00 | 0.00 | 43 | 1012.8 |
| 20260504003415 | 10 | 264 | 0.0 | 0.0 | 0.00 | 0.00 | 0.00 | 44 | 1012.9 |
| 20260504002912 | 10 | 223 | 0.0 | 0.0 | 0.00 | 0.00 | 0.00 | 43 | 1012.9 |
| 20260504002409 | 10 | 234 | 1.6 | 3.2 | 0.00 | 0.00 | 0.00 | 42 | 1012.9 |
| 20260504001907 | 10 | 182 | 0.0 | 0.0 | 0.00 | 0.00 | 0.00 | 42 | 1012.8 |
| 20260504001404 | 10 | 224 | 0.0 | 0.0 | 0.00 | 0.00 | 0.00 | 43 | 1012.8 |
| 20260504000900 | 10 | 226 | 0.0 | 0.0 | 0.00 | 0.00 | 0.00 | 41 | 1012.7 |
| 20260504000358 | 10 | 236 | 0.0 | 0.0 | 0.00 | 0.00 | 0.00 | 41 | 1012.8 |
| 20260503235855 | 10 | 229 | 0.0 | 0.0 | 0.00 | 0.00 | 0.00 | 42 | 1012.8 |
| 20260503235353 | 10 | 215 | 0.0 | 0.0 | 0.00 | 0.00 | 0.00 | 42 | 1012.9 |
| 20260503234850 | 10 | 215 | 0.0 | 0.0 | 0.00 | 0.00 | 0.00 | 42 | 1012.7 |
| 20260503234348 | 10 | 213 | 0.0 | 0.0 | 0.00 | 0.00 | 0.00 | 42 | 1012.7 |
| 20260503233845 | 11 | 212 | 0.0 | 0.0 | 0.00 | 0.00 | 0.00 | 41 | 1012.9 |
| 20260503233341 | 11 | 212 | 0.0 | 0.0 | 0.00 | 0.00 | 0.00 | 43 | 1012.7 |
| 20260503232837 | 11 | 143 | 0.0 | 0.0 | 0.00 | 0.00 | 0.00 | 41 | 1012.8 |
| 20260503232335 | 11 | 179 | 0.0 | 0.0 | 0.00 | 0.00 | 0.00 | 41 | 1013.1 |
| 20260503231833 | 11 | 270 | 1.6 | 3.2 | 0.00 | 0.00 | 0.00 | 41 | 1012.8 |
| 20260503231330 | 11 | 187 | 1.6 | 1.6 | 0.00 | 0.00 | 0.00 | 40 | 1012.9 |
| 20260503230825 | 11 | 235 | 0.0 | 0.0 | 0.00 | 0.00 | 0.00 | 40 | 1012.7 |
| 20260503230323 | 11 | 280 | 1.6 | 3.2 | 0.00 | 0.00 | 0.00 | 38 | 1012.7 |
| 20260503225820 | 11 | 218 | 0.0 | 3.2 | 0.00 | 0.00 | 0.00 | 40 | 1012.8 |
| 20260503225316 | 11 | 232 | 0.0 | 0.0 | 0.00 | 0.00 | 0.00 | 39 | 1012.9 |
| 20260503224812 | 12 | 326 | 4.8 | 4.8 | 0.00 | 0.00 | 0.00 | 38 | 1012.6 |
| 20260503224310 | 12 | 75 | 1.6 | 4.8 | 0.00 | 0.00 | 0.00 | 36 | 1012.8 |
| 20260503223808 | 12 | 195 | 0.0 | 0.0 | 0.00 | 0.00 | 0.00 | 34 | 1012.8 |
| 20260503223305 | 12 | 196 | 0.0 | 0.0 | 0.00 | 0.00 | 0.00 | 40 | 1012.6 |
| 20260503222800 | 12 | 196 | 0.0 | 0.0 | 0.00 | 0.00 | 0.00 | 40 | 1012.6 |
| 20260503222259 | 12 | 186 | 0.0 | 3.2 | 0.00 | 0.00 | 0.00 | 37 | 1012.9 |
| 20260503221757 | 12 | 175 | 3.2 | 4.8 | 0.00 | 0.00 | 0.00 | 34 | 1012.8 |
| 20260503221255 | 12 | 193 | 0.0 | 0.0 | 0.00 | 0.00 | 0.00 | 34 | 1012.8 |
| 20260503220751 | 12 | 206 | 0.0 | 3.2 | 0.00 | 0.00 | 0.00 | 37 | 1012.4 |
| 20260503220248 | 13 | 359 | 0.0 | 0.0 | 0.00 | 0.00 | 0.00 | 34 | 1012.6 |
| 20260503215745 | 13 | 35 | 1.6 | 3.2 | 0.00 | 0.00 | 0.00 | 34 | 1012.7 |
| 20260503215242 | 13 | 244 | 0.0 | 4.8 | 0.00 | 0.00 | 0.00 | 34 | 1012.6 |
| 20260503214740 | 14 | 106 | 3.2 | 8.0 | 0.00 | 0.00 | 0.00 | 32 | 1012.5 |
| 20260503214236 | 15 | 203 | 0.0 | 4.8 | 0.00 | 0.00 | 0.00 | 31 | 1012.7 |
| 20260503213735 | 15 | 129 | 1.6 | 4.8 | 0.00 | 0.00 | 0.00 | 33 | 1012.7 |
| 20260503213231 | 15 | 103 | 3.2 | 9.7 | 0.00 | 0.00 | 0.00 | 30 | 1012.7 |
| 20260503212728 | 15 | 94 | 4.8 | 8.0 | 0.00 | 0.00 | 0.00 | 32 | 1012.8 |
| 20260503212226 | 14 | 130 | 1.6 | 3.2 | 0.00 | 0.00 | 0.00 | 31 | 1012.9 |
| 20260503211723 | 15 | 122 | 3.2 | 3.2 | 0.00 | 0.00 | 0.00 | 31 | 1012.9 |
| 20260503211219 | 15 | 115 | 0.0 | 1.6 | 0.00 | 0.00 | 0.00 | 34 | 1013.1 |
| 20260503210715 | 15 | 237 | 4.8 | 4.8 | 0.00 | 0.00 | 0.00 | 34 | 1012.9 |
| 20260503210213 | 15 | 106 | 4.8 | 8.0 | 0.00 | 0.00 | 0.00 | 29 | 1012.9 |
| 20260503205708 | 15 | 330 | 3.2 | 8.0 | 0.00 | 0.00 | 0.00 | 33 | 1012.8 |
| 20260503205204 | 15 | 201 | 3.2 | 9.7 | 0.00 | 0.00 | 0.00 | 31 | 1013.1 |
| 20260503204700 | 15 | 43 | 1.6 | 8.0 | 0.00 | 0.00 | 0.00 | 32 | 1013.0 |
| 20260503204158 | 15 | 210 | 1.6 | 8.0 | 0.00 | 0.00 | 0.00 | 28 | 1013.0 |
| 20260503203655 | 15 | 93 | 1.6 | 8.0 | 0.00 | 0.00 | 0.00 | 30 | 1012.9 |
| 20260503203153 | 15 | 175 | 4.8 | 9.7 | 0.00 | 0.00 | 0.00 | 30 | 1013.1 |
| 20260503202650 | 15 | 174 | 1.6 | 8.0 | 0.00 | 0.00 | 0.00 | 34 | 1013.3 |
| 20260503202148 | 15 | 258 | 4.8 | 8.0 | 0.00 | 0.00 | 0.00 | 32 | 1013.4 |
| 20260503201646 | 15 | 163 | 0.0 | 4.8 | 0.00 | 0.00 | 0.00 | 31 | 1013.3 |
| 20260503201143 | 15 | 86 | 1.6 | 8.0 | 0.00 | 0.00 | 0.00 | 29 | 1013.3 |
| 20260503200639 | 14 | 137 | 3.2 | 4.8 | 0.00 | 0.00 | 0.00 | 36 | 1013.3 |
| 20260503200135 | 14 | 92 | 3.2 | 8.0 | 0.00 | 0.00 | 0.00 | 35 | 1013.6 |
| 20260503195633 | 14 | 123 | 4.8 | 11.3 | 0.00 | 0.00 | 0.00 | 33 | 1013.9 |
| 20260503195129 | 15 | 253 | 3.2 | 8.0 | 0.00 | 0.00 | 0.00 | 31 | 1013.8 |
| 20260503194627 | 14 | 318 | 4.8 | 9.7 | 0.00 | 0.00 | 0.00 | 32 | 1013.8 |
| 20260503194122 | 15 | 72 | 9.7 | 14.5 | 0.00 | 0.00 | 0.00 | 32 | 1013.7 |
| 20260503193619 | 15 | 142 | 1.6 | 8.0 | 0.00 | 0.00 | 0.00 | 33 | 1014.0 |
| 20260503193114 | 15 | 98 | 6.4 | 11.3 | 0.00 | 0.00 | 0.00 | 31 | 1014.0 |
| 20260503192610 | 15 | 197 | 3.2 | 8.0 | 0.00 | 0.00 | 0.00 | 29 | 1014.0 |
| 20260503192106 | 13 | 272 | 4.8 | 11.3 | 0.00 | 0.00 | 0.00 | 30 | 1013.9 |
| 20260503191603 | 14 | 171 | 0.0 | 4.8 | 0.00 | 0.00 | 0.00 | 32 | 1014.1 |
| 20260503191059 | 14 | 333 | 4.8 | 12.9 | 0.00 | 0.00 | 0.00 | 35 | 1014.0 |
| 20260503190557 | 13 | 151 | 1.6 | 4.8 | 0.00 | 0.00 | 0.00 | 32 | 1014.3 |
| 20260503190054 | 14 | 281 | 6.4 | 11.3 | 0.00 | 0.00 | 0.00 | 30 | 1014.4 |
| 20260503185550 | 13 | 198 | 0.0 | 9.7 | 0.00 | 0.00 | 0.00 | 34 | 1014.3 |
| 20260503185050 | 13 | 80 | 0.0 | 9.7 | 0.00 | 0.00 | 0.00 | 31 | 1014.4 |
| 20260503184546 | 13 | 27 | 6.4 | 9.7 | 0.00 | 0.00 | 0.00 | 31 | 1014.4 |
| 20260503184043 | 13 | 263 | 6.4 | 12.9 | 0.00 | 0.00 | 0.00 | 30 | 1014.6 |
| 20260503183539 | 13 | 133 | 0.0 | 8.0 | 0.00 | 0.00 | 0.00 | 36 | 1014.8 |
| 20260503183037 | 13 | 340 | 0.0 | 4.8 | 0.00 | 0.00 | 0.00 | 33 | 1014.7 |
| 20260503182535 | 13 | 89 | 6.4 | 12.9 | 0.00 | 0.00 | 0.00 | 32 | 1014.8 |
| 20260503182033 | 13 | 159 | 1.6 | 8.0 | 0.00 | 0.00 | 0.00 | 31 | 1014.9 |
| 20260503181529 | 13 | 109 | 0.0 | 8.0 | 0.00 | 0.00 | 0.00 | 31 | 1014.7 |
| 20260503181026 | 12 | 270 | 4.8 | 12.9 | 0.00 | 0.00 | 0.00 | 37 | 1014.7 |
| 20260503180523 | 13 | 298 | 3.2 | 9.7 | 0.00 | 0.00 | 0.00 | 33 | 1014.8 |
| 20260503180020 | 13 | 44 | 3.2 | 4.8 | 0.00 | 0.00 | 0.00 | 32 | 1014.9 |
| 20260503175518 | 13 | 103 | 1.6 | 11.3 | 0.00 | 0.00 | 0.00 | 33 | 1015.0 |
| 20260503175015 | 13 | 113 | 3.2 | 8.0 | 0.00 | 0.00 | 0.00 | 36 | 1015.0 |
| 20260503174512 | 12 | 265 | 4.8 | 9.7 | 0.00 | 0.00 | 0.00 | 38 | 1014.8 |
| 20260503174008 | 12 | 83 | 3.2 | 11.3 | 0.00 | 0.00 | 0.00 | 32 | 1014.9 |
| 20260503173503 | 12 | 162 | 1.6 | 9.7 | 0.00 | 0.00 | 0.00 | 35 | 1014.9 |
| 20260503173000 | 13 | 73 | 6.4 | 11.3 | 0.00 | 0.00 | 0.00 | 35 | 1015.0 |
| 20260503172458 | 12 | 92 | 14.5 | 16.1 | 0.00 | 0.00 | 0.00 | 36 | 1014.8 |
| 20260503171954 | 12 | 227 | 4.8 | 9.7 | 0.00 | 0.00 | 0.00 | 32 | 1015.2 |
| 20260503171451 | 12 | 114 | 4.8 | 11.3 | 0.00 | 0.00 | 0.00 | 35 | 1014.8 |
| 20260503170948 | 12 | 101 | 3.2 | 14.5 | 0.00 | 0.00 | 0.00 | 37 | 1015.3 |
| 20260503170444 | 12 | 124 | 3.2 | 12.9 | 0.00 | 0.00 | 0.00 | 34 | 1015.2 |
| 20260503150837 | 9 | 112 | 4.8 | 9.7 | 0.00 | 0.00 | 0.00 | 48 | 1016.1 |
| 20260503150333 | 8 | 66 | 6.4 | 12.9 | 0.00 | 0.00 | 0.00 | 49 | 1016.3 |
| 20260503140257 | 8 | 334 | 3.2 | 8.0 | 0.00 | 0.00 | 0.00 | 52 | 1016.1 |
| 20260503131227 | 7 | 182 | 4.8 | 9.7 | 0.00 | 0.00 | 0.00 | 49 | 1015.8 |
| 20260503130724 | 7 | 135 | 0.0 | 1.6 | 0.00 | 0.00 | 0.00 | 49 | 1016.3 |
| 20260503130221 | 7 | 93 | 3.2 | 9.7 | 0.00 | 0.00 | 0.00 | 51 | 1016.1 |
| 20260503120147 | 5 | 79 | 4.8 | 12.9 | 0.00 | 0.00 | 0.00 | 56 | 1015.6 |
| 20260503110615 | 3 | 118 | 0.0 | 4.8 | 0.00 | 0.00 | 0.00 | 62 | 1015.0 |
| 20260503110112 | 3 | 212 | 1.6 | 1.6 | 0.00 | 0.00 | 0.00 | 63 | 1015.0 |
| 20260503090501 | 2 | 255 | 1.6 | 8.0 | 0.00 | 0.00 | 0.00 | 66 | 1013.6 |
| 20260503081428 | 3 | 120 | 0.0 | 1.6 | 0.00 | 0.00 | 0.00 | 66 | 1013.1 |
| 20260503080925 | 3 | 165 | 1.6 | 8.0 | 0.00 | 0.00 | 0.00 | 63 | 1013.1 |
| 20260503080422 | 3 | 258 | 1.6 | 3.2 | 0.00 | 0.00 | 0.00 | 68 | 1013.0 |
| 20260503072858 | 3 | 75 | 1.6 | 3.2 | 0.00 | 0.00 | 0.00 | 66 | 1012.8 |
| 20260503072355 | 3 | 163 | 1.6 | 9.7 | 0.00 | 0.00 | 0.00 | 66 | 1012.7 |
| 20260503071851 | 3 | 93 | 0.0 | 1.6 | 0.00 | 0.00 | 0.00 | 64 | 1012.7 |
| 20260503071349 | 3 | 75 | 6.4 | 8.0 | 0.00 | 0.00 | 0.00 | 64 | 1012.7 |
| 20260503070845 | 3 | 117 | 0.0 | 1.6 | 0.00 | 0.00 | 0.00 | 66 | 1012.8 |
| 20260503070343 | 3 | 222 | 0.0 | 0.0 | 0.00 | 0.00 | 0.00 | 66 | 1012.8 |
| 20260503060314 | 3 | 163 | 0.0 | 0.0 | 0.00 | 0.00 | 0.00 | 65 | 1012.8 |
| 20260503054801 | 3 | 96 | 4.8 | 4.8 | 0.00 | 0.00 | 0.00 | 65 | 1012.8 |
| 20260503054258 | 4 | 203 | 0.0 | 1.6 | 0.00 | 0.00 | 0.00 | 68 | 1012.7 |
| 20260503053755 | 3 | 193 | 3.2 | 4.8 | 0.00 | 0.00 | 0.00 | 66 | 1012.7 |
| 20260503053255 | 3 | 240 | 0.0 | 3.2 | 0.00 | 0.00 | 0.00 | 71 | 1012.7 |
| 20260503052750 | 3 | 186 | 0.0 | 1.6 | 0.00 | 0.00 | 0.00 | 70 | 1012.5 |
| 20260503052247 | 4 | 94 | 0.0 | 3.2 | 0.00 | 0.00 | 0.00 | 71 | 1012.7 |
| 20260503051742 | 4 | 123 | 0.0 | 0.0 | 0.00 | 0.00 | 0.00 | 69 | 1012.6 |
| 20260503051241 | 4 | 190 | 0.0 | 0.0 | 0.00 | 0.00 | 0.00 | 68 | 1012.8 |